sat.trackr.live / text

‹ back to catalog

STARLINK-32571

NORAD 62055 · 2024-216Z

PAYLOAD ACTIVE UNKNOWN

§ Identity

Operator
Country
US
Launch date
2024-11-21
Launch site
AFETR
Launch vehicle
Mass (kg)
RCS (m²)

Purposes: comms

External: N2YO · Heavens-Above · Gunter

§ Orbital elements

Epoch: 2026-09-21T06:32:50.487648Z

Period
94.27 min
Inclination
42.9995°
Eccentricity
0.0000908
Mean motion
15.27579220 rev/d
Perigee alt
482.4 km
Apogee alt
483.7 km
Semi-major
6,861.2 km
B*
2.0403e-4
RAAN
231.2402°
Arg perigee
270.7883°
Mean anomaly
89.2864°
Rev number
10,389

§ Raw data

STARLINK-325711 62055U 24216Z   26264.27280657  .00005356  00000+0  20403-3 0  99902 62055  42.9995 231.2402 0000908 270.7883  89.2864 15.27579220103892

JSON: /api/v1/satellites/62055 · /tle

For live sub-satellite position, see the globe view (requires WebGL).

§ Visibility from observer

Set your observer location to see the next 7 days of passes ≥ 10°. The values pass through the URL so the page stays shareable.

No JS? Fill the form by hand. The geolocation button needs JavaScript.